• In Hungary
  • List of Countries
  • For 7 days
  • Water Temperature
  • Satellite Maps
  • Weather Map
  • News
  • Weather Widgets
  • user-avatar
    Login

    Hourly Weather Międzyrzecz

    Today, 26 September, Wednesday

    Time Temperature Precipitation Wind Pressure Humidity
    00:00 +7°C° 0 mm 2 mps 773 mmHg 70%
    01:00 +6°C° 0 mm 2 mps 773 mmHg 71%
    02:00 +6°C° 0 mm 2 mps 773 mmHg 72%
    03:00 +6°C° 0 mm 2 mps 772 mmHg 73%
    04:00 +6°C° 0 mm 2 mps 772 mmHg 74%
    05:00 +5°C° 0 mm 3 mps 772 mmHg 73%
    06:00 +5°C° 0 mm 3 mps 772 mmHg 71%
    07:00 +7°C° 0 mm 3 mps 772 mmHg 69%
    08:00 +7°C° 0 mm 4 mps 771 mmHg 63%
    09:00 +9°C° 0 mm 5 mps 771 mmHg 57%
    10:00 +10°C° 0 mm 5 mps 771 mmHg 51%
    11:00 +13°C° 0 mm 5 mps 770 mmHg 48%
    12:00 +14°C° 0 mm 6 mps 770 mmHg 44%
    13:00 +15°C° 0 mm 6 mps 769 mmHg 41%
    14:00 +15°C° 0 mm 6 mps 768 mmHg 42%
    15:00 +15°C° 0 mm 6 mps 768 mmHg 42%
    16:00 +15°C° 0 mm 6 mps 767 mmHg 43%
    17:00 +15°C° 0 mm 5 mps 767 mmHg 45%
    18:00 +14°C° 0 mm 5 mps 767 mmHg 46%
    19:00 +13°C° 0 mm 5 mps 766 mmHg 48%
    20:00 +14°C° 0 mm 5 mps 766 mmHg 49%
    21:00 +14°C° 0 mm 5 mps 766 mmHg 50%
    22:00 +14°C° 0 mm 5 mps 766 mmHg 51%
    23:00 +14°C° 0 mm 5 mps 766 mmHg 53%

    Tomorrow, 27 September, Thursday

    Time Temperature Precipitation Wind Pressure Humidity
    00:00 +14°C° 0 mm 5 mps 766 mmHg 55%
    01:00 +13°C° 0 mm 5 mps 766 mmHg 58%
    02:00 +13°C° 0 mm 5 mps 766 mmHg 61%
    03:00 +13°C° 0 mm 5 mps 766 mmHg 64%
    04:00 +12°C° 0 mm 5 mps 765 mmHg 68%
    05:00 +12°C° 0 mm 5 mps 765 mmHg 69%
    06:00 +12°C° 0 mm 5 mps 766 mmHg 71%
    07:00 +12°C° 0 mm 5 mps 766 mmHg 73%
    08:00 +14°C° 0 mm 5 mps 766 mmHg 70%
    09:00 +15°C° 0 mm 5 mps 766 mmHg 67%
    10:00 +17°C° 0 mm 5 mps 766 mmHg 64%
    11:00 +19°C° 0 mm 5 mps 765 mmHg 62%
    12:00 +20°C° 0 mm 5 mps 765 mmHg 60%
    13:00 +22°C° 0 mm 5 mps 764 mmHg 58%
    14:00 +22°C° 0 mm 5 mps 764 mmHg 58%
    15:00 +22°C° 0 mm 4 mps 763 mmHg 59%
    16:00 +22°C° 0 mm 4 mps 762 mmHg 59%
    17:00 +20°C° 0 mm 4 mps 762 mmHg 63%
    18:00 +19°C° 0 mm 4 mps 762 mmHg 67%
    19:00 +18°C° 0 mm 3 mps 761 mmHg 71%
    20:00 +17°C° 0 mm 3 mps 761 mmHg 69%
    21:00 +17°C° 0 mm 3 mps 761 mmHg 66%
    22:00 +15°C° 0 mm 4 mps 760 mmHg 64%
    23:00 +15°C° 0 mm 4 mps 760 mmHg 64%

    Day after tomorrow, 28 September, Friday

    Time Temperature Precipitation Wind Pressure Humidity
    00:00 +14°C° 0 mm 4 mps 759 mmHg 63%
    01:00 +13°C° 0 mm 4 mps 759 mmHg 63%
    02:00 +13°C° 0 mm 4 mps 759 mmHg 66%
    03:00 +12°C° 0 mm 4 mps 759 mmHg 68%
    04:00 +12°C° 0 mm 4 mps 759 mmHg 70%
    05:00 +12°C° 0 mm 4 mps 759 mmHg 73%
    06:00 +12°C° 0 mm 4 mps 759 mmHg 75%
    07:00 +12°C° 0 mm 4 mps 760 mmHg 78%
    08:00 +13°C° 0 mm 4 mps 760 mmHg 71%
    09:00 +14°C° 0 mm 4 mps 760 mmHg 65%
    10:00 +14°C° 0 mm 4 mps 761 mmHg 58%
    11:00 +15°C° 0 mm 4 mps 761 mmHg 54%
    12:00 +15°C° 0 mm 4 mps 761 mmHg 50%
    13:00 +17°C° 0 mm 4 mps 761 mmHg 46%
    14:00 +17°C° 0 mm 4 mps 761 mmHg 46%
    15:00 +15°C° 0 mm 4 mps 761 mmHg 46%
    16:00 +15°C° 0 mm 4 mps 761 mmHg 46%
    17:00 +14°C° 0 mm 3 mps 761 mmHg 50%
    18:00 +13°C° 0 mm 3 mps 761 mmHg 54%
    19:00 +12°C° 0 mm 2 mps 761 mmHg 58%
    20:00 +12°C° 0 mm 2 mps 762 mmHg 58%
    21:00 +10°C° 0 mm 2 mps 762 mmHg 59%
    22:00 +10°C° 0 mm 2 mps 762 mmHg 59%
    23:00 +9°C° 0 mm 2 mps 762 mmHg 62%

    29 September, Saturday

    Time Temperature Precipitation Wind Pressure Humidity
    00:00 +8°C° 0 mm 2 mps 762 mmHg 65%
    01:00 +8°C° 0 mm 2 mps 762 mmHg 68%
    02:00 +7°C° 0 mm 2 mps 763 mmHg 70%
    03:00 +7°C° 0 mm 3 mps 763 mmHg 72%
    04:00 +5°C° 0 mm 3 mps 763 mmHg 74%
    05:00 +7°C° 0 mm 3 mps 763 mmHg 73%
    06:00 +7°C° 0 mm 3 mps 764 mmHg 73%
    07:00 +7°C° 0 mm 3 mps 764 mmHg 72%
    08:00 +9°C° 0 mm 3 mps 765 mmHg 66%
    09:00 +10°C° 0 mm 3 mps 765 mmHg 60%
    10:00 +12°C° 0 mm 3 mps 765 mmHg 54%
    11:00 +13°C° 0 mm 3 mps 765 mmHg 51%
    12:00 +14°C° 0 mm 3 mps 766 mmHg 47%
    13:00 +16°C° 0 mm 2 mps 766 mmHg 44%
    14:00 +15°C° 0 mm 2 mps 766 mmHg 44%
    15:00 +15°C° 0 mm 2 mps 766 mmHg 44%
    16:00 +15°C° 0 mm 2 mps 766 mmHg 45%
    17:00 +14°C° 0 mm 2 mps 766 mmHg 49%
    18:00 +12°C° 0 mm 2 mps 766 mmHg 54%
    19:00 +11°C° 0 mm 1 mps 766 mmHg 59%
    20:00 +10°C° 0 mm 1 mps 766 mmHg 60%
    21:00 +10°C° 0 mm 1 mps 767 mmHg 61%
    22:00 +9°C° 0 mm 1 mps 767 mmHg 62%
    23:00 +8°C° 0 mm 0 mps 767 mmHg 63%

    30 September, Sunday

    Time Temperature Precipitation Wind Pressure Humidity
    00:00 +7°C° 0 mm 0 mps 766 mmHg 63%
    01:00 +7°C° 0 mm 0 mps 766 mmHg 64%
    02:00 +7°C° 0 mm 0 mps 766 mmHg 65%
    03:00 +7°C° 0 mm 0 mps 766 mmHg 66%
    04:00 +6°C° 0 mm 0 mps 766 mmHg 67%
    05:00 +8°C° 0 mm 1 mps 766 mmHg 67%
    06:00 +8°C° 0 mm 1 mps 766 mmHg 68%
    07:00 +8°C° 0 mm 1 mps 765 mmHg 68%
    08:00 +10°C° 0 mm 1 mps 765 mmHg 61%
    09:00 +12°C° 0 mm 1 mps 765 mmHg 55%
    10:00 +14°C° 0 mm 2 mps 765 mmHg 48%
    11:00 +15°C° 0 mm 2 mps 765 mmHg 45%
    12:00 +16°C° 0 mm 2 mps 764 mmHg 42%
    13:00 +17°C° 0 mm 2 mps 763 mmHg 39%
    14:00 +16°C° 0 mm 2 mps 763 mmHg 40%
    15:00 +16°C° 0 mm 2 mps 762 mmHg 40%
    16:00 +16°C° 0 mm 2 mps 762 mmHg 41%
    17:00 +15°C° 0 mm 2 mps 762 mmHg 45%
    18:00 +13°C° 0 mm 1 mps 762 mmHg 49%
    19:00 +11°C° 0 mm 1 mps 761 mmHg 54%
    20:00 +11°C° 0 mm 1 mps 761 mmHg 55%
    21:00 +10°C° 0 mm 1 mps 761 mmHg 56%
    22:00 +10°C° 0 mm 1 mps 761 mmHg 58%
    23:00 +9°C° 0 mm 1 mps 760 mmHg 59%

    1 October, Monday

    Time Temperature Precipitation Wind Pressure Humidity
    00:00 +9°C° 0 mm 1 mps 760 mmHg 60%
    01:00 +9°C° 0 mm 1 mps 759 mmHg 61%
    02:00 +8°C° 0 mm 1 mps 759 mmHg 62%
    03:00 +8°C° 0 mm 1 mps 758 mmHg 63%
    04:00 +8°C° 0 mm 1 mps 758 mmHg 64%
    05:00 +8°C° 0 mm 1 mps 757 mmHg 64%
    06:00 +8°C° 0 mm 1 mps 757 mmHg 64%
    07:00 +8°C° 0 mm 1 mps 757 mmHg 65%
    08:00 +10°C° 0 mm 1 mps 756 mmHg 58%
    09:00 +12°C° 0 mm 1 mps 756 mmHg 52%
    10:00 +14°C° 0 mm 1 mps 755 mmHg 45%
    11:00 +15°C° 0 mm 1 mps 755 mmHg 43%
    12:00 +16°C° 0 mm 1 mps 754 mmHg 40%
    13:00 +18°C° 0 mm 1 mps 754 mmHg 38%
    14:00 +18°C° 0 mm 1 mps 753 mmHg 38%
    15:00 +18°C° 0 mm 1 mps 753 mmHg 39%
    16:00 +16°C° 0 mm 0 mps 752 mmHg 39%
    17:00 +15°C° 0 mm 1 mps 752 mmHg 45%
    18:00 +13°C° 0 mm 1 mps 752 mmHg 50%
    19:00 +11°C° 0 mm 1 mps 752 mmHg 56%
    20:00 +11°C° 0 mm 1 mps 752 mmHg 58%
    21:00 +11°C° 0 mm 1 mps 752 mmHg 60%
    22:00 +10°C° 0 mm 1 mps 752 mmHg 62%
    23:00 +10°C° 0 mm 1 mps 752 mmHg 63%
    Show more